Weather History for Du Bois, PA

Change the Weather History Date:

Thursday, October 7, 2010

  Actual Average Record
Temperature  
Mean Temperature 54 °F 52 °F  
Max Temperature 64 °F 62 °F 82 °F (2007)
Min Temperature 44 °F 42 °F 25 °F (1964)
Degree Days  
Heating Degree Days 10 13  
Month to date heating degree days 86  
Since 1 July heating degree days 332  
Cooling Degree Days 0 0  
Month to date cooling degree days 0  
Year to date cooling degree days 360  
Growing Degree Days 4 (Base 50)    
Moisture  
Dew Point 46 °F    
Average Humidity 85    
Maximum Humidity 100    
Minimum Humidity 42    
Precipitation  
Precipitation 0.01 in 0.10 in 1.55 in (2005)
Month to date precipitation 0.74  
Sea Level Pressure  
Sea Level Pressure 29.85 in    
Wind  
Wind Speed 11 mph (West)    
Max Wind Speed 20 mph    
Max Gust Speed 30 mph    
Visibility 6 miles    
Events Fog    
T = Trace of Precipitation, MM = Missing Value Source: NWS Daily Summary

Daily Weather History Graph

Daily Weather History Graph

Search for Another Location

Airport:

Trip Planner

Search our weather history database for the weather conditions in past years. The results will help you decide how hot, cold, wet, or windy it might be!

Date:

Astronomy

Oct. 07, 2010 Rise Set
Actual Time 7:18 AM EDT 6:47 PM EDT
Civil Twilight 6:50 AM EDT 7:15 PM EDT
Nautical Twilight 6:19 AM EDT 7:46 PM EDT
Astronomical Twilight 5:46 AM EDT 8:19 PM EDT
Moon 7:08 AM EDT (10/7) 6:22 PM EDT (10/7)
Length of Visible Light 12h 24m
Length of Day
11h 29m
Waning Crescent, 0% of the Moon is Illuminated
Oct 7
Waning Crescent
Oct 7
New
Oct 14
First Quarter
Oct 22
Full
Oct 30
Last Quarter

Hourly Weather History & Observations

Time (EDT) Temp. Windchill Dew Point Humidity Pressure Visibility Wind Dir Wind Speed Gust Speed Precip Events Conditions
12:35 AM 48.2 °F - 48.2 °F 100% 29.80 in 8.0 mi West 10.4 mph - N/A   Overcast
12:56 AM 48.9 °F - 48.9 °F 100% 29.81 in 8.0 mi WSW 9.2 mph - N/A   Overcast
1:07 AM 48.2 °F - 48.2 °F 100% 29.79 in 6.0 mi West 9.2 mph - N/A   Overcast
1:56 AM 50.0 °F - 48.9 °F 96% 29.80 in 6.0 mi West 11.5 mph - N/A   Overcast
2:49 AM 48.2 °F - 48.2 °F 100% 29.79 in 1.8 mi WSW 12.7 mph - N/A   Overcast
2:56 AM 48.9 °F - 48.0 °F 97% 29.80 in 1.0 mi WSW 11.5 mph - N/A   Overcast
3:09 AM 48.2 °F - 48.2 °F 100% 29.79 in 0.5 mi WSW 12.7 mph - N/A Fog Fog
3:20 AM 48.2 °F - 48.2 °F 100% 29.79 in 0.5 mi WSW 15.0 mph - N/A Fog Fog
3:37 AM 48.2 °F - 46.4 °F 93% 29.78 in 1.8 mi WSW 11.5 mph - N/A   Overcast
3:56 AM 48.0 °F - 46.9 °F 96% 29.79 in 0.5 mi West 13.8 mph - N/A Fog Fog
4:07 AM 48.2 °F - 46.4 °F 93% 29.78 in 1.2 mi WSW 11.5 mph 23.0 mph N/A   Overcast
4:25 AM 48.2 °F - 46.4 °F 93% 29.78 in 2.0 mi WSW 11.5 mph - N/A   Overcast
4:44 AM 48.2 °F - 46.4 °F 93% 29.78 in 3.0 mi WSW 9.2 mph - N/A   Overcast
4:53 AM 48.2 °F - 46.4 °F 93% 29.78 in 3.0 mi WSW 10.4 mph - N/A   Overcast
4:56 AM 48.0 °F - 46.9 °F 96% 29.79 in 4.0 mi WSW 10.4 mph - N/A   Overcast
5:20 AM 48.2 °F - 46.4 °F 93% 29.79 in 4.0 mi WSW 9.2 mph - N/A   Overcast
5:56 AM 48.0 °F - 46.9 °F 96% 29.79 in 5.0 mi WSW 9.2 mph - N/A   Overcast
6:56 AM 46.9 °F - 46.0 °F 97% 29.80 in 6.0 mi WSW 6.9 mph - N/A   Overcast
7:26 AM 46.4 °F 42.4 °F 46.4 °F 100% 29.79 in 2.5 mi WSW 8.1 mph - N/A   Overcast
7:56 AM 46.9 °F - 46.9 °F 100% 29.81 in 2.5 mi WSW 6.9 mph - N/A   Overcast
8:02 AM 46.4 °F 42.9 °F 46.4 °F 100% 29.80 in 3.0 mi WSW 6.9 mph - N/A   Overcast
8:17 AM 48.2 °F - 46.4 °F 93% 29.81 in 3.0 mi West 8.1 mph - N/A   Overcast
8:37 AM 48.2 °F - 46.4 °F 93% 29.81 in 4.0 mi West 9.2 mph - N/A   Overcast
8:56 AM 48.9 °F - 48.0 °F 97% 29.83 in 4.0 mi West 10.4 mph - N/A   Overcast
9:39 AM 51.8 °F - 50.0 °F 94% 29.84 in 9.0 mi WNW 9.2 mph - N/A   Overcast
9:56 AM 50.0 °F - 48.0 °F 93% 29.86 in 10.0 mi WNW 11.5 mph 29.9 mph N/A   Overcast
10:33 AM 53.6 °F - 48.2 °F 82% 29.86 in 10.0 mi WNW 13.8 mph 23.0 mph N/A   Overcast
10:40 AM 53.6 °F - 48.2 °F 82% 29.86 in 10.0 mi WNW 15.0 mph 24.2 mph N/A   Overcast
10:56 AM 52.0 °F - 48.0 °F 86% 29.87 in 10.0 mi WNW 12.7 mph 21.9 mph N/A   Overcast
11:52 AM 57.2 °F - 50.0 °F 77% 29.88 in 10.0 mi NW 11.5 mph 19.6 mph N/A   Overcast
11:56 AM 57.0 °F - 50.0 °F 77% 29.88 in 10.0 mi WNW 12.7 mph 19.6 mph N/A   Overcast
12:56 PM 60.1 °F - 48.0 °F 64% 29.89 in 10.0 mi WNW 17.3 mph 24.2 mph N/A   Mostly Cloudy
1:56 PM 62.1 °F - 44.1 °F 52% 29.88 in 10.0 mi WNW 16.1 mph 27.6 mph 0.01 in   Partly Cloudy
2:56 PM 63.0 °F - 45.0 °F 52% 29.88 in 10.0 mi WNW 19.6 mph 28.8 mph N/A   Partly Cloudy
3:56 PM 63.0 °F - 43.0 °F 48% 29.88 in 10.0 mi WNW 11.5 mph 24.2 mph N/A   Clear
4:56 PM 62.1 °F - 43.0 °F 50% 29.90 in 10.0 mi WNW 17.3 mph 24.2 mph N/A   Clear
5:56 PM 60.1 °F - 37.0 °F 42% 29.93 in 10.0 mi WNW 15.0 mph 21.9 mph N/A   Clear
6:56 PM 55.0 °F - 37.0 °F 51% 29.96 in 10.0 mi West 8.1 mph - N/A   Clear
7:56 PM 52.0 °F - 39.0 °F 61% 29.98 in 10.0 mi West 8.1 mph - N/A   Clear
8:56 PM 51.1 °F - 41.0 °F 68% 30.00 in 10.0 mi West 6.9 mph - N/A   Clear
9:56 PM 50.0 °F - 42.1 °F 74% 30.01 in 10.0 mi West 6.9 mph - N/A   Clear
10:56 PM 46.0 °F 42.5 °F 41.0 °F 83% 30.02 in 10.0 mi WSW 6.9 mph - N/A   Clear
11:56 PM 44.1 °F 40.8 °F 41.0 °F 89% 30.03 in 10.0 mi SW 5.8 mph - N/A   Clear